Time,TemperatureF,DewpointF,PressureIn,WindDirection,WindDirectionDegrees,WindSpeedMPH,WindSpeedGustMPH,Humidity,HourlyPrecipIn,Conditions,Clouds,dailyrainin,SoftwareType,DateUTC
2013-07-24 00:52:00,75.0,75.0,30.01,North,0,0.0,0.0,100,99.99,,,-99.99,,2013-07-24 04:52:00,
2013-07-24 01:02:00,75.0,75.0,30.01,North,0,0.0,0.0,100,99.99,,,-99.99,,2013-07-24 05:02:00,
2013-07-24 01:52:00,74.0,74.0,29.99,West,277,1.0,4.0,100,99.99,,,-99.99,,2013-07-24 05:52:00,
2013-07-24 02:01:00,75.0,75.0,29.98,West,260,3.0,4.0,100,99.99,,,-99.99,,2013-07-24 06:01:00,
2013-07-24 02:12:00,75.0,75.0,29.98,West,273,3.0,4.0,100,99.99,,,-99.99,,2013-07-24 06:12:00,
2013-07-24 02:24:00,75.0,75.0,29.98,WSW,256,3.0,4.0,100,99.99,,,-99.99,,2013-07-24 06:24:00,
2013-07-24 02:34:00,75.0,75.0,29.98,West,263,2.0,4.0,100,99.99,,,-99.99,,2013-07-24 06:34:00,
2013-07-24 02:53:00,75.0,75.0,29.96,WSW,255,4.0,6.0,100,99.99,,,-99.99,,2013-07-24 06:53:00,
2013-07-24 03:02:00,75.0,75.0,29.96,WSW,255,4.0,6.0,100,99.99,,,-99.99,,2013-07-24 07:02:00,
2013-07-24 03:12:00,75.0,75.0,29.95,West,262,3.0,5.0,100,99.99,,,-99.99,,2013-07-24 07:12:00,
2013-07-24 03:22:00,75.0,75.0,29.95,West,260,4.0,5.0,100,99.99,,,-99.99,,2013-07-24 07:22:00,
2013-07-24 03:32:00,75.0,75.0,29.94,WSW,253,4.0,6.0,100,99.99,,,-99.99,,2013-07-24 07:32:00,
2013-07-24 03:43:00,75.0,75.0,29.94,SW,218,4.0,6.0,100,99.99,,,-99.99,,2013-07-24 07:43:00,
2013-07-24 03:52:00,75.0,75.0,29.93,WSW,243,4.0,7.0,100,99.99,,,-99.99,,2013-07-24 07:52:00,
2013-07-24 04:02:00,75.0,75.0,29.93,WSW,243,4.0,7.0,100,99.99,,,-99.99,,2013-07-24 08:02:00,
2013-07-24 04:12:00,75.0,75.0,29.93,WSW,253,3.0,4.0,100,99.99,,,-99.99,,2013-07-24 08:12:00,
2013-07-24 04:22:00,75.0,75.0,29.94,West,264,3.0,5.0,100,99.99,,,-99.99,,2013-07-24 08:22:00,
2013-07-24 04:32:00,75.0,75.0,29.94,West,264,3.0,5.0,100,99.99,,,-99.99,,2013-07-24 08:32:00,
2013-07-24 04:43:00,75.0,75.0,29.94,West,273,3.0,5.0,100,99.99,,,-99.99,,2013-07-24 08:43:00,
2013-07-24 04:52:00,75.0,75.0,29.94,West,264,3.0,6.0,100,99.99,,,-99.99,,2013-07-24 08:52:00,
2013-07-24 05:02:00,75.0,75.0,29.94,West,273,3.0,5.0,100,99.99,,,-99.99,,2013-07-24 09:02:00,
2013-07-24 05:12:00,75.0,75.0,29.94,West,273,3.0,5.0,100,99.99,,,-99.99,,2013-07-24 09:12:00,
2013-07-24 05:32:00,75.0,75.0,29.93,WNW,288,4.0,5.0,100,99.99,,,-99.99,,2013-07-24 09:32:00,
2013-07-24 05:43:00,75.0,75.0,29.94,WSW,249,3.0,5.0,100,99.99,,,-99.99,,2013-07-24 09:43:00,
2013-07-24 05:53:00,75.0,75.0,29.94,West,266,4.0,6.0,100,99.99,,,-99.99,,2013-07-24 09:53:00,
2013-07-24 06:12:00,75.0,75.0,29.95,WSW,243,3.0,6.0,100,99.99,,,-99.99,,2013-07-24 10:12:00,
2013-07-24 06:33:00,75.0,75.0,29.95,WSW,257,2.0,4.0,100,99.99,,,-99.99,,2013-07-24 10:33:00,
2013-07-24 06:43:00,75.0,75.0,29.95,WSW,245,3.0,5.0,100,99.99,,,-99.99,,2013-07-24 10:43:00,
2013-07-24 07:02:00,75.0,75.0,29.94,SW,229,4.0,6.0,100,99.99,,,-99.99,,2013-07-24 11:02:00,
2013-07-24 07:43:00,75.0,75.0,29.94,SW,219,4.0,7.0,100,99.99,,,-99.99,,2013-07-24 11:43:00,
2013-07-24 07:52:00,75.0,75.0,29.94,SW,219,4.0,7.0,100,99.99,,,-99.99,,2013-07-24 11:52:00,
2013-07-24 08:02:00,75.0,75.0,29.94,SW,219,4.0,7.0,100,99.99,,,-99.99,,2013-07-24 12:02:00,
2013-07-24 08:42:00,78.0,78.0,29.96,West,281,4.0,7.0,100,99.99,,,-99.99,,2013-07-24 12:42:00,
2013-07-24 09:02:00,78.0,78.0,29.97,West,281,5.0,8.0,100,99.99,,,-99.99,,2013-07-24 13:02:00,
2013-07-24 09:22:00,80.0,78.0,29.97,West,280,5.0,8.0,93,99.99,,,-99.99,,2013-07-24 13:22:00,
2013-07-24 09:43:00,82.0,74.0,29.98,WNW,285,8.0,12.0,77,99.99,,,-99.99,,2013-07-24 13:43:00,
2013-07-24 09:53:00,82.0,74.0,29.98,WNW,288,7.0,12.0,78,99.99,,,-99.99,,2013-07-24 13:53:00,
2013-07-24 10:02:00,83.0,75.0,29.97,WNW,288,7.0,10.0,77,99.99,,,-99.99,,2013-07-24 14:02:00,
2013-07-24 10:12:00,83.0,74.0,29.98,West,263,7.0,12.0,74,99.99,,,-99.99,,2013-07-24 14:12:00,
2013-07-24 10:22:00,84.0,74.0,29.98,West,281,6.0,11.0,73,99.99,,,-99.99,,2013-07-24 14:22:00,
2013-07-24 10:32:00,84.0,74.0,29.97,NW,319,7.0,13.0,71,99.99,,,-99.99,,2013-07-24 14:32:00,
2013-07-24 10:43:00,85.0,74.0,29.97,WNW,300,8.0,12.0,70,99.99,,,-99.99,,2013-07-24 14:43:00,
2013-07-24 10:55:00,86.0,75.0,29.97,West,264,7.0,13.0,69,99.99,,,-99.99,,2013-07-24 14:55:00,
2013-07-24 11:02:00,86.0,74.0,29.97,WNW,288,8.0,13.0,68,99.99,,,-99.99,,2013-07-24 15:02:00,
2013-07-24 11:22:00,86.0,74.0,29.97,WSW,256,8.0,18.0,67,99.99,,,-99.99,,2013-07-24 15:22:00,
2013-07-24 11:33:00,87.0,74.0,29.98,NW,304,9.0,16.0,65,99.99,,,-99.99,,2013-07-24 15:33:00,
2013-07-24 11:43:00,87.0,74.0,29.98,West,273,6.0,10.0,65,99.99,,,-99.99,,2013-07-24 15:43:00,
2013-07-24 11:52:00,87.0,73.0,29.97,West,266,9.0,17.0,64,99.99,,,-99.99,,2013-07-24 15:52:00,
2013-07-24 12:02:00,87.0,73.0,29.96,SW,226,6.0,10.0,64,99.99,,,-99.99,,2013-07-24 16:02:00,
2013-07-24 12:12:00,88.0,74.0,29.97,West,270,7.0,11.0,63,99.99,,,-99.99,,2013-07-24 16:12:00,
2013-07-24 12:22:00,87.0,73.0,29.96,SW,226,6.0,11.0,64,99.99,,,-99.99,,2013-07-24 16:22:00,
2013-07-24 12:32:00,89.0,75.0,29.96,West,274,8.0,13.0,63,99.99,,,-99.99,,2013-07-24 16:32:00,
2013-07-24 12:43:00,87.0,74.0,29.96,NNW,329,10.0,16.0,66,99.99,,,-99.99,,2013-07-24 16:43:00,
2013-07-24 12:53:00,85.0,75.0,29.96,NW,311,7.0,10.0,73,99.99,,,-99.99,,2013-07-24 16:53:00,
2013-07-24 13:02:00,85.0,74.0,29.95,WSW,255,7.0,12.0,70,99.99,,,-99.99,,2013-07-24 17:02:00,
2013-07-24 13:12:00,88.0,74.0,29.95,West,270,7.0,12.0,63,99.99,,,-99.99,,2013-07-24 17:12:00,
2013-07-24 13:22:00,87.0,73.0,29.95,NW,312,7.0,13.0,64,99.99,,,-99.99,,2013-07-24 17:22:00,
2013-07-24 13:33:00,87.0,75.0,29.95,NW,312,8.0,12.0,67,99.99,,,-99.99,,2013-07-24 17:33:00,
2013-07-24 13:53:00,85.0,74.0,29.94,NW,316,5.0,9.0,70,99.99,,,-99.99,,2013-07-24 17:53:00,
2013-07-24 14:02:00,84.0,76.0,29.95,NW,326,6.0,14.0,76,99.99,,,-99.99,,2013-07-24 18:02:00,
2013-07-24 14:12:00,83.0,77.0,29.96,NNW,336,4.0,7.0,82,99.99,,,-99.99,,2013-07-24 18:12:00,
2013-07-24 14:22:00,81.0,76.0,29.96,NW,326,4.0,8.0,86,99.99,,,-99.99,,2013-07-24 18:22:00,
2013-07-24 14:33:00,80.0,76.0,29.95,NW,322,2.0,5.0,89,99.99,,,-99.99,,2013-07-24 18:33:00,
2013-07-24 14:43:00,80.0,78.0,29.95,NW,305,1.0,2.0,95,99.99,,,-99.99,,2013-07-24 18:43:00,
2013-07-24 14:52:00,80.0,79.0,29.96,North,352,1.0,5.0,97,99.99,,,-99.99,,2013-07-24 18:52:00,
2013-07-24 15:02:00,78.0,76.0,29.96,North,1,7.0,13.0,95,99.99,,,-99.99,,2013-07-24 19:02:00,
2013-07-24 15:43:00,77.0,77.0,29.95,North,0,0.0,0.0,100,99.99,,,-99.99,,2013-07-24 19:43:00,
2013-07-24 15:53:00,76.0,76.0,29.94,North,11,0.0,1.0,100,99.99,,,-99.99,,2013-07-24 19:53:00,
2013-07-24 16:13:00,77.0,77.0,29.93,North,0,0.0,0.0,100,99.99,,,-99.99,,2013-07-24 20:13:00,
2013-07-24 16:23:00,77.0,77.0,29.92,North,3,2.0,4.0,100,99.99,,,-99.99,,2013-07-24 20:23:00,
2013-07-24 16:32:00,77.0,77.0,29.93,NE,52,2.0,4.0,100,99.99,,,-99.99,,2013-07-24 20:32:00,
2013-07-24 16:43:00,78.0,78.0,29.92,NE,49,0.0,2.0,100,99.99,,,-99.99,,2013-07-24 20:43:00,
2013-07-24 16:52:00,78.0,78.0,29.92,North,0,0.0,0.0,100,99.99,,,-99.99,,2013-07-24 20:52:00,
2013-07-24 17:32:00,81.0,78.0,29.91,North,0,0.0,0.0,92,99.99,,,-99.99,,2013-07-24 21:32:00,
2013-07-24 17:52:00,83.0,77.0,29.90,South,187,1.0,4.0,83,99.99,,,-99.99,,2013-07-24 21:52:00,
2013-07-24 19:02:00,86.0,75.0,29.90,SW,233,1.0,3.0,71,99.99,,,-99.99,,2013-07-24 23:02:00,
2013-07-24 19:32:00,86.0,75.0,29.90,WNW,283,4.0,7.0,69,99.99,,,-99.99,,2013-07-24 23:32:00,
2013-07-24 19:43:00,86.0,74.0,29.90,WNW,293,3.0,6.0,67,99.99,,,-99.99,,2013-07-24 23:43:00,
2013-07-24 19:52:00,86.0,74.0,29.91,WNW,295,3.0,6.0,68,99.99,,,-99.99,,2013-07-24 23:52:00,
2013-07-24 20:02:00,85.0,74.0,29.91,WNW,283,3.0,6.0,69,99.99,,,-99.99,,2013-07-25 00:02:00,
2013-07-24 20:43:00,82.0,72.0,29.93,NW,308,4.0,9.0,73,99.99,,,-99.99,,2013-07-25 00:43:00,
2013-07-24 21:02:00,81.0,73.0,29.93,West,260,3.0,4.0,76,99.99,,,-99.99,,2013-07-25 01:02:00,
2013-07-24 21:12:00,81.0,73.0,29.93,WNW,284,3.0,5.0,77,99.99,,,-99.99,,2013-07-25 01:12:00,